Flag for Portugal Weather past 2 weeks in Viana do Castelo, Portugal

Now
61 °F

Passing clouds.


Feels Like: 61 °F
Forecast: 62 / 82 °F
Wind: 9 mph from Northwest

Location: Porto / Pedras Rubras

Current Time: Jul 7, 2015 at 4:33:12 AM

Latest Report: Jul 7, 2015 at 3:30 AM


Visibility: N/A

Pressure: 30.09 "Hg

Humidity: 100%

Dew point: 61 °F

Location of Viana do CasteloLocation

Historic Weather in Viana do Castelo — Graph

°F

Viana do Castelo temperature yesterday

Maximum temperature yesterday: 72 °F (at 12:30 PM)
Minimum temperature yesterday: 52 °F (at 5:00 AM)
Average temperature yesterday: 62 °F

Past Weeks' High & Low Weather Summary

 TemperatureHumidityPressure
High75 °F (Jun 27, 1:00 PM)100% (Jun 22, 3:00 AM)30.21 "Hg (Jun 22, 3:00 AM)
Low52 °F (Jul 6, 5:00 AM)50% (Jul 3, 1:30 PM)29.92 "Hg (Jul 1, 6:00 AM)
Average64 °F85%30.09 "Hg
* Reported Jun 22 3:00 AM — Jul 7 3:00 AM, Viana do Castelo, Weather by CustomWeather, © 2015

Note: Actual official high and low records may vary slightly from our data, if they occured in-between our weather recording intervals... More about our weather records

Advertising

Viana do Castelo weather history for previous 24 hours

 ConditionsComfort  
Time TempWeatherWind HumidityBarometerVisibility
3:00 AM
Tue, Jul 7
59 °FPassing clouds.3 mph100%30.09 "HgN/A
2:30 AM57 °FPassing clouds.5 mph100%30.09 "HgN/A
2:00 AM59 °FClear.7 mph100%30.09 "Hg10 mi
1:30 AM61 °FClear.5 mph94%30.09 "Hg10 mi
1:00 AM59 °FPassing clouds.5 mph94%30.09 "HgN/A
12:30 AM59 °FClear.5 mph94%30.09 "Hg10 mi
12:00 AM61 °FClear.8 mph94%30.09 "Hg10 mi
11:30 PM
Mon, Jul 6
61 °FClear.1 mph94%30.09 "Hg10 mi
11:00 PM61 °FPassing clouds.3 mph88%30.09 "HgN/A
10:30 PM61 °FClear.7 mph94%30.09 "Hg10 mi
10:00 PM61 °FPassing clouds.8 mph94%30.09 "HgN/A
9:30 PM63 °FSunny.7 mph88%30.07 "Hg10 mi
9:00 PM63 °FSunny.9 mph88%30.07 "Hg10 mi
8:30 PM64 °FSunny.12 mph83%30.07 "Hg10 mi
8:00 PM64 °FSunny.14 mph83%30.07 "Hg10 mi
7:30 PM66 °FSunny.15 mph78%30.07 "Hg10 mi
7:00 PM66 °FPassing clouds.15 mph78%30.07 "HgN/A
6:30 PM66 °FSunny.15 mph78%30.07 "Hg10 mi
6:00 PM68 °FPassing clouds.13 mph69%30.07 "HgN/A
5:30 PM68 °FSunny.13 mph69%30.07 "Hg10 mi
5:00 PM68 °FSunny.14 mph73%30.07 "Hg10 mi
4:30 PM70 °FPassing clouds.13 mph69%30.07 "HgN/A
4:00 PM70 °FPassing clouds.14 mph69%30.07 "HgN/A
3:30 PM68 °FPassing clouds.13 mph78%30.07 "HgN/A
3:00 PM68 °FPassing clouds.13 mph73%30.07 "HgN/A
2:30 PM70 °FSunny.14 mph73%30.07 "Hg10 mi
2:00 PM70 °FSunny.12 mph73%30.07 "Hg10 mi
1:30 PM70 °FPassing clouds.10 mph73%30.07 "HgN/A
1:00 PM70 °FSunny.10 mph73%30.07 "Hg10 mi
12:30 PM72 °FPassing clouds.7 mph69%30.07 "HgN/A
12:00 PM70 °FPassing clouds.6 mph69%30.07 "HgN/A
11:30 AM68 °FPassing clouds.6 mph73%30.07 "HgN/A
11:00 AM68 °FPassing clouds.6 mph69%30.07 "HgN/A
10:30 AM68 °FPassing clouds.6 mph73%30.07 "HgN/A
10:00 AM68 °FSunny.5 mph69%30.07 "Hg10 mi
9:30 AM66 °FSunny.2 mph78%30.07 "Hg10 mi
9:00 AM64 °FPassing clouds.3 mph78%30.07 "HgN/A
8:30 AM63 °FPassing clouds.3 mph83%30.07 "HgN/A
8:00 AM59 °FSunny.No wind94%30.07 "Hg10 mi
7:30 AM57 °FSunny.No wind94%30.07 "Hg10 mi
7:00 AM52 °FClear.3 mph100%30.07 "Hg10 mi
6:30 AM52 °FClear.2 mph100%30.07 "Hg10 mi
6:00 AM52 °FClear.No wind100%30.07 "Hg10 mi
5:30 AM55 °FClear.2 mph94%30.07 "Hg10 mi
5:00 AM52 °FClear.No wind100%30.07 "Hg10 mi
4:30 AM54 °FClear.2 mph100%30.07 "Hg10 mi
4:00 AM54 °FClear.2 mph94%30.07 "Hg10 mi
Weather by CustomWeather, © 2015

See weather overviewHow to use our weather pages